| time (UTC) | temp C | wind direction | speed KPH | gust KPH | rain 1hr cm | rain 24hr cm | rain mn cm | humidity % | barometer mb |
| 20260906114429 | 25 | 264 | 1.6 | 6.4 | 0.00 | 0.00 | 0.00 | 94 | 1012.5 |
| 20260906113929 | 25 | 264 | 1.6 | 4.8 | 0.00 | 0.00 | 0.00 | 94 | 1012.3 |
| 20260906113429 | 25 | 264 | 1.6 | 3.2 | 0.00 | 0.00 | 0.00 | 94 | 1012.2 |
| 20260906112930 | 25 | 264 | 1.6 | 4.8 | 0.00 | 0.00 | 0.00 | 94 | 1012.1 |
| 20260906112430 | 25 | 264 | 1.6 | 4.8 | 0.00 | 0.00 | 0.00 | 94 | 1012.2 |
| 20260906111415 | 25 | 264 | 1.6 | 6.4 | 0.00 | 0.00 | 0.00 | 94 | 1012.1 |
| 20260906110910 | 25 | 264 | 1.6 | 4.8 | 0.00 | 0.00 | 0.00 | 94 | 1012.0 |
| 20260906110404 | 25 | 264 | 1.6 | 4.8 | 0.00 | 0.00 | 0.00 | 93 | 1011.9 |
| 20260906105903 | 25 | 264 | 1.6 | 3.2 | 0.00 | 0.00 | 0.00 | 93 | 1011.9 |
| 20260906104904 | 25 | 264 | 0.0 | 3.2 | 0.00 | 0.00 | 0.00 | 93 | 1012.0 |
| 20260906104407 | 25 | 264 | 0.0 | 3.2 | 0.00 | 0.00 | 0.00 | 93 | 1012.1 |
| 20260906103905 | 25 | 264 | 0.0 | 0.0 | 0.00 | 0.00 | 0.00 | 93 | 1011.9 |
| 20260906103403 | 25 | 264 | 0.0 | 0.0 | 0.00 | 0.00 | 0.00 | 93 | 1011.9 |
| 20260906102406 | 25 | 264 | 0.0 | 0.0 | 0.00 | 0.00 | 0.00 | 93 | 1011.8 |
| 20260906101904 | 25 | 264 | 0.0 | 0.0 | 0.00 | 0.00 | 0.00 | 93 | 1011.9 |
| 20260906101401 | 25 | 264 | 0.0 | 0.0 | 0.00 | 0.00 | 0.00 | 93 | 1011.9 |
| 20260906100901 | 25 | 264 | 0.0 | 0.0 | 0.00 | 0.00 | 0.00 | 93 | 1011.7 |
| 20260906100403 | 25 | 264 | 0.0 | 0.0 | 0.00 | 0.00 | 0.00 | 93 | 1011.7 |
| 20260906095908 | 25 | 264 | 0.0 | 0.0 | 0.00 | 0.00 | 0.00 | 93 | 1011.7 |
| 20260906095406 | 25 | 264 | 0.0 | 0.0 | 0.00 | 0.00 | 0.00 | 93 | 1011.6 |
| 20260906094902 | 25 | 264 | 0.0 | 0.0 | 0.00 | 0.00 | 0.00 | 93 | 1011.6 |
| 20260906093903 | 25 | 264 | 0.0 | 0.0 | 0.00 | 0.00 | 0.00 | 93 | 1011.5 |
| 20260906093400 | 25 | 264 | 0.0 | 0.0 | 0.00 | 0.00 | 0.00 | 93 | 1011.3 |
| 20260906092403 | 25 | 264 | 0.0 | 0.0 | 0.00 | 0.00 | 0.00 | 93 | 1011.2 |
| 20260906091903 | 25 | 264 | 0.0 | 0.0 | 0.00 | 0.00 | 0.00 | 93 | 1011.3 |
| 20260906091353 | 25 | 264 | 0.0 | 0.0 | 0.00 | 0.00 | 0.00 | 93 | 1011.2 |
| 20260906090852 | 25 | 264 | 0.0 | 0.0 | 0.00 | 0.00 | 0.00 | 93 | 1011.2 |
| 20260906090350 | 25 | 264 | 0.0 | 0.0 | 0.00 | 0.00 | 0.00 | 93 | 1011.2 |
| 20260906085848 | 25 | 264 | 0.0 | 1.6 | 0.00 | 0.00 | 0.00 | 92 | 1011.1 |
| 20260906085347 | 25 | 264 | 0.0 | 1.6 | 0.00 | 0.00 | 0.00 | 92 | 1011.3 |
| 20260906084845 | 26 | 264 | 0.0 | 1.6 | 0.00 | 0.00 | 0.00 | 92 | 1011.2 |
| 20260906084344 | 26 | 264 | 0.0 | 3.2 | 0.00 | 0.00 | 0.00 | 92 | 1011.2 |
| 20260906083841 | 26 | 264 | 1.6 | 3.2 | 0.00 | 0.00 | 0.00 | 92 | 1011.3 |
| 20260906083340 | 26 | 264 | 1.6 | 3.2 | 0.00 | 0.00 | 0.00 | 92 | 1011.5 |
| 20260906082840 | 26 | 264 | 1.6 | 3.2 | 0.00 | 0.00 | 0.00 | 92 | 1011.5 |
| 20260906082339 | 26 | 264 | 1.6 | 4.8 | 0.00 | 0.00 | 0.00 | 92 | 1011.3 |
| 20260906081849 | 26 | 264 | 1.6 | 4.8 | 0.00 | 0.00 | 0.00 | 92 | 1011.2 |
| 20260906081344 | 26 | 264 | 3.2 | 4.8 | 0.00 | 0.00 | 0.00 | 92 | 1011.4 |
| 20260906080837 | 26 | 264 | 1.6 | 4.8 | 0.00 | 0.00 | 0.00 | 92 | 1011.6 |
| 20260906080336 | 26 | 264 | 0.0 | 3.2 | 0.00 | 0.00 | 0.00 | 92 | 1011.5 |
| 20260906075836 | 26 | 264 | 0.0 | 0.0 | 0.00 | 0.00 | 0.00 | 92 | 1011.3 |
| 20260906075331 | 26 | 264 | 0.0 | 0.0 | 0.00 | 0.00 | 0.00 | 92 | 1011.3 |
| 20260906074830 | 26 | 264 | 0.0 | 0.0 | 0.00 | 0.00 | 0.00 | 92 | 1011.2 |
| 20260906074330 | 26 | 264 | 0.0 | 0.0 | 0.00 | 0.00 | 0.00 | 92 | 1011.3 |
| 20260906073831 | 26 | 264 | 0.0 | 0.0 | 0.00 | 0.00 | 0.00 | 92 | 1011.4 |
| 20260906073327 | 26 | 264 | 0.0 | 1.6 | 0.00 | 0.00 | 0.00 | 92 | 1011.3 |
| 20260906072824 | 26 | 264 | 0.0 | 1.6 | 0.00 | 0.00 | 0.00 | 92 | 1011.3 |
| 20260906072325 | 26 | 264 | 1.6 | 3.2 | 0.00 | 0.00 | 0.00 | 92 | 1011.3 |
| 20260906071828 | 26 | 264 | 1.6 | 3.2 | 0.00 | 0.00 | 0.00 | 92 | 1011.4 |
| 20260906071322 | 26 | 264 | 0.0 | 3.2 | 0.00 | 0.00 | 0.00 | 92 | 1011.4 |
| 20260906070817 | 26 | 264 | 0.0 | 1.6 | 0.00 | 0.00 | 0.00 | 91 | 1011.4 |
| 20260906070317 | 26 | 264 | 1.6 | 3.2 | 0.00 | 0.00 | 0.00 | 91 | 1011.3 |
| 20260906065813 | 26 | 264 | 1.6 | 4.8 | 0.00 | 0.00 | 0.00 | 91 | 1011.3 |
| 20260906065607 | 26 | 264 | 1.6 | 4.8 | 0.00 | 0.00 | 0.00 | 91 | 1011.5 |
| 20260906065410 | 26 | 264 | 3.2 | 4.8 | 0.00 | 0.00 | 0.00 | 91 | 1011.4 |
| 20260906065210 | 26 | 264 | 1.6 | 4.8 | 0.00 | 0.00 | 0.00 | 91 | 1011.3 |
| 20260906065009 | 26 | 264 | 0.0 | 4.8 | 0.00 | 0.00 | 0.00 | 90 | 1011.3 |
| 20260906064816 | 26 | 264 | 0.0 | 3.2 | 0.00 | 0.00 | 0.00 | 90 | 1011.3 |
| 20260906064631 | 26 | 264 | 1.6 | 4.8 | 0.00 | 0.00 | 0.00 | 90 | 1011.4 |
| 20260906064444 | 26 | 264 | 3.2 | 9.7 | 0.00 | 0.00 | 0.00 | 90 | 1011.5 |
| 20260906064250 | 26 | 264 | 3.2 | 9.7 | 0.00 | 0.00 | 0.00 | 91 | 1011.4 |
| 20260906064102 | 26 | 267 | 1.6 | 6.4 | 0.00 | 0.00 | 0.00 | 91 | 1011.4 |
| 20260906063840 | 26 | 267 | 0.0 | 0.0 | 0.00 | 0.00 | 0.00 | 91 | 1011.5 |
| 20260906063247 | 26 | 267 | 0.0 | 0.0 | 0.00 | 0.00 | 0.00 | 92 | 1011.8 |
| 20260906063101 | 26 | 267 | 0.0 | 0.0 | 0.00 | 0.00 | 0.00 | 92 | 1011.9 |
| 20260906061657 | 26 | 267 | 0.0 | 0.0 | 0.00 | 0.00 | 0.00 | 92 | 1012.1 |
| 20260906061509 | 26 | 267 | 0.0 | 0.0 | 0.00 | 0.00 | 0.00 | 92 | 1012.0 |
| 20260906061325 | 26 | 267 | 0.0 | 0.0 | 0.00 | 0.00 | 0.00 | 92 | 1011.9 |
| 20260906061131 | 26 | 267 | 0.0 | 0.0 | 0.00 | 0.00 | 0.00 | 92 | 1012.0 |
| 20260906060935 | 26 | 267 | 0.0 | 0.0 | 0.00 | 0.00 | 0.00 | 92 | 1012.1 |
| 20260906060737 | 26 | 267 | 0.0 | 0.0 | 0.00 | 0.00 | 0.00 | 92 | 1012.0 |
| 20260906060530 | 26 | 267 | 0.0 | 0.0 | 0.00 | 0.00 | 0.00 | 92 | 1012.0 |
| 20260906035739 | 26 | 267 | 0.0 | 0.0 | 0.00 | 0.00 | 0.00 | 91 | 1012.3 |
| 20260906035235 | 26 | 267 | 0.0 | 0.0 | 0.00 | 0.00 | 0.00 | 91 | 1012.3 |
| 20260906034736 | 26 | 267 | 0.0 | 0.0 | 0.00 | 0.00 | 0.00 | 91 | 1012.4 |
| 20260906034228 | 26 | 267 | 0.0 | 0.0 | 0.00 | 0.00 | 0.00 | 91 | 1012.3 |
| 20260906033726 | 26 | 267 | 0.0 | 0.0 | 0.00 | 0.00 | 0.00 | 91 | 1012.4 |
| 20260906033225 | 26 | 267 | 0.0 | 0.0 | 0.00 | 0.00 | 0.00 | 90 | 1012.5 |
| 20260906032725 | 27 | 267 | 0.0 | 0.0 | 0.00 | 0.00 | 0.00 | 90 | 1012.4 |
| 20260906032223 | 27 | 267 | 0.0 | 0.0 | 0.00 | 0.00 | 0.00 | 90 | 1012.5 |
| 20260906031721 | 27 | 267 | 0.0 | 0.0 | 0.00 | 0.00 | 0.00 | 90 | 1012.6 |
| 20260906031220 | 27 | 267 | 0.0 | 0.0 | 0.00 | 0.00 | 0.00 | 90 | 1012.6 |
| 20260906030226 | 27 | 267 | 0.0 | 0.0 | 0.00 | 0.00 | 0.00 | 90 | 1012.6 |
| 20260906025717 | 27 | 267 | 0.0 | 0.0 | 0.00 | 0.00 | 0.00 | 90 | 1012.5 |
| 20260906025211 | 27 | 267 | 0.0 | 0.0 | 0.00 | 0.00 | 0.00 | 89 | 1012.6 |
| 20260906024710 | 27 | 267 | 0.0 | 0.0 | 0.00 | 0.00 | 0.00 | 89 | 1012.7 |
| 20260906024208 | 27 | 267 | 0.0 | 0.0 | 0.00 | 0.00 | 0.00 | 89 | 1012.5 |
| 20260906023710 | 27 | 267 | 0.0 | 0.0 | 0.00 | 0.00 | 0.00 | 89 | 1012.4 |
| 20260906023213 | 27 | 267 | 0.0 | 0.0 | 0.00 | 0.00 | 0.00 | 89 | 1012.5 |
| 20260906022203 | 27 | 267 | 0.0 | 0.0 | 0.00 | 0.00 | 0.00 | 88 | 1012.2 |
| 20260906021702 | 27 | 267 | 0.0 | 0.0 | 0.00 | 0.00 | 0.00 | 88 | 1012.4 |
| 20260906021201 | 27 | 267 | 0.0 | 0.0 | 0.00 | 0.00 | 0.00 | 88 | 1012.4 |
| 20260906020704 | 27 | 267 | 0.0 | 0.0 | 0.00 | 0.00 | 0.00 | 88 | 1012.2 |
| 20260906020201 | 27 | 267 | 0.0 | 0.0 | 0.00 | 0.00 | 0.00 | 88 | 1012.2 |
| 20260906015701 | 27 | 267 | 0.0 | 0.0 | 0.00 | 0.00 | 0.00 | 88 | 1012.2 |
| 20260906015201 | 27 | 267 | 0.0 | 0.0 | 0.00 | 0.00 | 0.00 | 87 | 1012.2 |
| 20260906014701 | 28 | 267 | 0.0 | 0.0 | 0.00 | 0.00 | 0.00 | 87 | 1012.3 |
| 20260906014206 | 28 | 267 | 0.0 | 0.0 | 0.00 | 0.00 | 0.00 | 86 | 1012.3 |
| 20260906013703 | 28 | 267 | 0.0 | 0.0 | 0.00 | 0.00 | 0.00 | 86 | 1012.2 |
| 20260906012701 | 28 | 267 | 0.0 | 0.0 | 0.00 | 0.00 | 0.00 | 86 | 1012.1 |
| 20260906011200 | 28 | 267 | 0.0 | 0.0 | 0.00 | 0.00 | 0.00 | 84 | 1012.0 |
| 20260906010700 | 28 | 267 | 0.0 | 0.0 | 0.00 | 0.00 | 0.00 | 84 | 1012.0 |
| 20260906010159 | 28 | 267 | 0.0 | 0.0 | 0.00 | 0.00 | 0.00 | 84 | 1011.8 |
| 20260906005657 | 28 | 267 | 0.0 | 0.0 | 0.00 | 0.00 | 0.00 | 83 | 1011.7 |
| 20260906005157 | 28 | 267 | 0.0 | 0.0 | 0.00 | 0.00 | 0.00 | 83 | 1011.6 |
| 20260906004657 | 29 | 267 | 0.0 | 0.0 | 0.00 | 0.00 | 0.00 | 83 | 1011.6 |
| 20260906004156 | 29 | 267 | 0.0 | 0.0 | 0.00 | 0.00 | 0.00 | 83 | 1011.4 |
| 20260906003656 | 29 | 267 | 0.0 | 0.0 | 0.00 | 0.00 | 0.00 | 82 | 1011.4 |
| 20260906002654 | 29 | 267 | 0.0 | 0.0 | 0.00 | 0.00 | 0.00 | 81 | 1011.5 |
| 20260906001156 | 30 | 267 | 0.0 | 0.0 | 0.00 | 0.00 | 0.00 | 78 | 1011.5 |
| 20260906000651 | 30 | 267 | 0.0 | 0.0 | 0.00 | 0.00 | 0.00 | 78 | 1011.4 |
| 20260906000151 | 30 | 267 | 0.0 | 0.0 | 0.00 | 0.00 | 0.00 | 77 | 1011.4 |
| 20260905235650 | 31 | 267 | 0.0 | 0.0 | 0.00 | 0.00 | 0.00 | 76 | 1011.3 |
| 20260905235148 | 31 | 267 | 0.0 | 0.0 | 0.00 | 0.00 | 0.00 | 74 | 1011.3 |
| 20260905234648 | 31 | 267 | 0.0 | 0.0 | 0.00 | 0.00 | 0.00 | 73 | 1011.3 |
| 20260905234146 | 31 | 267 | 0.0 | 0.0 | 0.00 | 0.00 | 0.00 | 72 | 1011.3 |
| 20260905233647 | 32 | 267 | 0.0 | 0.0 | 0.00 | 0.00 | 0.00 | 70 | 1011.3 |
| 20260905233147 | 32 | 267 | 0.0 | 0.0 | 0.00 | 0.00 | 0.00 | 69 | 1011.2 |
| 20260905232648 | 32 | 267 | 1.6 | 3.2 | 0.00 | 0.00 | 0.00 | 68 | 1011.1 |
| 20260905231645 | 32 | 267 | 3.2 | 11.3 | 0.00 | 0.00 | 0.00 | 68 | 1011.4 |
| 20260905230647 | 32 | 241 | 4.8 | 12.9 | 0.00 | 0.00 | 0.00 | 66 | 1011.3 |
| 20260905230145 | 32 | 240 | 4.8 | 12.9 | 0.00 | 0.00 | 0.00 | 66 | 1011.5 |
| 20260905225645 | 32 | 237 | 4.8 | 11.3 | 0.00 | 0.00 | 0.00 | 67 | 1011.5 |
| 20260905225139 | 32 | 271 | 4.8 | 11.3 | 0.00 | 0.00 | 0.00 | 67 | 1011.5 |
| 20260905224641 | 33 | 300 | 4.8 | 8.0 | 0.00 | 0.00 | 0.00 | 67 | 1011.5 |
| 20260905224137 | 32 | 29 | 4.8 | 12.9 | 0.00 | 0.00 | 0.00 | 67 | 1011.4 |
| 20260905223133 | 32 | 175 | 4.8 | 9.7 | 0.00 | 0.00 | 0.00 | 67 | 1011.3 |
| 20260905222133 | 32 | 268 | 4.8 | 9.7 | 0.00 | 0.00 | 0.00 | 66 | 1011.6 |
| 20260905221136 | 33 | 268 | 3.2 | 11.3 | 0.00 | 0.00 | 0.00 | 65 | 1011.5 |
| 20260905220628 | 33 | 262 | 3.2 | 9.7 | 0.00 | 0.00 | 0.00 | 66 | 1011.6 |
| 20260905215631 | 33 | 262 | 3.2 | 6.4 | 0.00 | 0.00 | 0.00 | 67 | 1011.6 |
| 20260905215132 | 32 | 261 | 6.4 | 14.5 | 0.00 | 0.00 | 0.00 | 65 | 1011.7 |
| 20260905214630 | 33 | 262 | 6.4 | 14.5 | 0.00 | 0.00 | 0.00 | 65 | 1011.7 |
| 20260905214130 | 33 | 270 | 3.2 | 12.9 | 0.00 | 0.00 | 0.00 | 65 | 1011.7 |
| 20260905213632 | 33 | 235 | 3.2 | 9.7 | 0.00 | 0.00 | 0.00 | 66 | 1011.7 |
| 20260905213139 | 32 | 259 | 4.8 | 9.7 | 0.00 | 0.00 | 0.00 | 66 | 1011.6 |
| 20260905212133 | 32 | 266 | 4.8 | 12.9 | 0.00 | 0.00 | 0.00 | 67 | 1011.6 |
| 20260905211635 | 33 | 266 | 4.8 | 12.9 | 0.00 | 0.00 | 0.00 | 66 | 1011.6 |
| 20260905211137 | 33 | 293 | 6.4 | 12.9 | 0.00 | 0.00 | 0.00 | 66 | 1011.5 |
| 20260905210631 | 32 | 241 | 6.4 | 14.5 | 0.00 | 0.00 | 0.00 | 67 | 1011.5 |
| 20260905205631 | 33 | 262 | 4.8 | 12.9 | 0.00 | 0.00 | 0.00 | 67 | 1011.4 |
| 20260905205127 | 32 | 239 | 6.4 | 11.3 | 0.00 | 0.00 | 0.00 | 67 | 1011.4 |
| 20260905204626 | 32 | 309 | 8.0 | 14.5 | 0.00 | 0.00 | 0.00 | 67 | 1011.5 |
| 20260905204126 | 32 | 288 | 6.4 | 14.5 | 0.00 | 0.00 | 0.00 | 67 | 1011.5 |
| 20260905203625 | 33 | 300 | 4.8 | 11.3 | 0.00 | 0.00 | 0.00 | 65 | 1011.5 |
| 20260905202625 | 32 | 284 | 4.8 | 16.1 | 0.00 | 0.00 | 0.00 | 67 | 1011.6 |
| 20260905201627 | 32 | 272 | 6.4 | 14.5 | 0.00 | 0.00 | 0.00 | 66 | 1011.7 |
| 20260905200617 | 32 | 232 | 6.4 | 12.9 | 0.00 | 0.00 | 0.00 | 66 | 1011.9 |
| 20260905200118 | 32 | 288 | 6.4 | 14.5 | 0.00 | 0.00 | 0.00 | 66 | 1012.0 |
| 20260905195110 | 32 | 243 | 6.4 | 12.9 | 0.00 | 0.00 | 0.00 | 69 | 1012.0 |
| 20260905194614 | 32 | 290 | 4.8 | 11.3 | 0.00 | 0.00 | 0.00 | 69 | 1012.0 |
| 20260905194113 | 32 | 231 | 4.8 | 11.3 | 0.00 | 0.00 | 0.00 | 68 | 1012.2 |
| 20260905193616 | 32 | 233 | 4.8 | 11.3 | 0.00 | 0.00 | 0.00 | 67 | 1012.2 |
| 20260905193102 | 32 | 292 | 4.8 | 12.9 | 0.00 | 0.00 | 0.00 | 69 | 1012.3 |
| 20260905192601 | 31 | 250 | 6.4 | 12.9 | 0.00 | 0.00 | 0.00 | 70 | 1012.5 |
| 20260905192103 | 31 | 277 | 6.4 | 12.9 | 0.00 | 0.00 | 0.00 | 70 | 1012.6 |
| 20260905191601 | 31 | 248 | 8.0 | 14.5 | 0.00 | 0.00 | 0.00 | 69 | 1012.7 |
| 20260905190602 | 31 | 210 | 6.4 | 12.9 | 0.00 | 0.00 | 0.00 | 72 | 1013.1 |
| 20260905185601 | 31 | 267 | 6.4 | 19.3 | 0.00 | 0.00 | 0.00 | 71 | 1013.2 |
| 20260905185102 | 31 | 270 | 6.4 | 16.1 | 0.00 | 0.00 | 0.00 | 71 | 1013.2 |
| 20260905184602 | 31 | 248 | 8.0 | 14.5 | 0.00 | 0.00 | 0.00 | 71 | 1013.2 |
| 20260905184106 | 31 | 245 | 8.0 | 16.1 | 0.00 | 0.00 | 0.00 | 72 | 1013.2 |
| 20260905183104 | 31 | 255 | 6.4 | 16.1 | 0.00 | 0.00 | 0.00 | 72 | 1013.3 |
| 20260905182603 | 31 | 266 | 8.0 | 16.1 | 0.00 | 0.00 | 0.00 | 73 | 1013.4 |
| 20260905181600 | 31 | 262 | 6.4 | 16.1 | 0.00 | 0.00 | 0.00 | 75 | 1013.4 |
| 20260905180602 | 31 | 304 | 8.0 | 16.1 | 0.00 | 0.00 | 0.00 | 74 | 1013.6 |
| 20260905175556 | 30 | 297 | 6.4 | 11.3 | 0.00 | 0.00 | 0.00 | 77 | 1013.7 |
| 20260905175105 | 30 | 249 | 6.4 | 14.5 | 0.00 | 0.00 | 0.00 | 76 | 1013.7 |
| 20260905174101 | 30 | 249 | 6.4 | 16.1 | 0.00 | 0.00 | 0.00 | 76 | 1014.0 |
| 20260905173559 | 30 | 223 | 4.8 | 16.1 | 0.00 | 0.00 | 0.00 | 78 | 1014.1 |
| 20260905173058 | 30 | 238 | 6.4 | 12.9 | 0.00 | 0.00 | 0.00 | 78 | 1014.2 |
| 20260905172553 | 30 | 272 | 6.4 | 14.5 | 0.00 | 0.00 | 0.00 | 79 | 1014.2 |
| 20260905172053 | 30 | 267 | 6.4 | 14.5 | 0.00 | 0.00 | 0.00 | 78 | 1014.2 |
| 20260905171550 | 30 | 241 | 4.8 | 11.3 | 0.00 | 0.00 | 0.00 | 78 | 1014.3 |
| 20260905170551 | 29 | 244 | 4.8 | 8.0 | 0.00 | 0.00 | 0.00 | 78 | 1014.4 |
| 20260905170051 | 30 | 237 | 3.2 | 11.3 | 0.00 | 0.00 | 0.00 | 77 | 1014.6 |
| 20260905165552 | 29 | 191 | 4.8 | 11.3 | 0.00 | 0.00 | 0.00 | 78 | 1014.5 |
| 20260905165052 | 29 | 236 | 4.8 | 11.3 | 0.00 | 0.00 | 0.00 | 80 | 1014.5 |
| 20260905164549 | 30 | 280 | 4.8 | 12.9 | 0.00 | 0.00 | 0.00 | 79 | 1014.7 |
| 20260905164045 | 29 | 285 | 6.4 | 12.9 | 0.00 | 0.00 | 0.00 | 79 | 1014.6 |
| 20260905163045 | 29 | 50 | 3.2 | 9.7 | 0.00 | 0.00 | 0.00 | 81 | 1014.7 |
| 20260905162545 | 28 | 237 | 3.2 | 6.4 | 0.00 | 0.00 | 0.00 | 81 | 1014.9 |
| 20260905161544 | 28 | 237 | 4.8 | 9.7 | 0.00 | 0.00 | 0.00 | 82 | 1014.9 |
| 20260905161044 | 28 | 237 | 4.8 | 9.7 | 0.00 | 0.00 | 0.00 | 83 | 1014.9 |
| 20260905160542 | 27 | 260 | 4.8 | 11.3 | 0.00 | 0.00 | 0.00 | 84 | 1015.0 |
| 20260905160043 | 27 | 261 | 6.4 | 11.3 | 0.00 | 0.00 | 0.00 | 84 | 1015.1 |
| 20260905155544 | 27 | 221 | 4.8 | 11.3 | 0.00 | 0.00 | 0.00 | 84 | 1015.2 |
| 20260905155049 | 27 | 272 | 4.8 | 12.9 | 0.00 | 0.00 | 0.00 | 84 | 1015.3 |
| 20260905154544 | 27 | 281 | 6.4 | 12.9 | 0.00 | 0.00 | 0.00 | 83 | 1015.4 |
| 20260905154042 | 27 | 263 | 4.8 | 11.3 | 0.00 | 0.00 | 0.00 | 83 | 1015.3 |
| 20260905152538 | 27 | 253 | 3.2 | 9.7 | 0.00 | 0.00 | 0.00 | 85 | 1015.5 |
| 20260905152052 | 27 | 284 | 3.2 | 6.4 | 0.00 | 0.00 | 0.00 | 86 | 1015.6 |
| 20260905151030 | 27 | 287 | 3.2 | 8.0 | 0.00 | 0.00 | 0.00 | 87 | 1015.6 |
| 20260905150532 | 27 | 287 | 4.8 | 11.3 | 0.00 | 0.00 | 0.00 | 87 | 1015.6 |
| 20260905145530 | 26 | 289 | 3.2 | 8.0 | 0.00 | 0.00 | 0.00 | 87 | 1015.7 |
| 20260905145030 | 26 | 289 | 4.8 | 8.0 | 0.00 | 0.00 | 0.00 | 88 | 1015.7 |
| 20260905144031 | 26 | 281 | 3.2 | 6.4 | 0.00 | 0.00 | 0.00 | 88 | 1015.7 |
| 20260905143530 | 26 | 281 | 3.2 | 8.0 | 0.00 | 0.00 | 0.00 | 88 | 1015.6 |
| 20260905143034 | 26 | 281 | 4.8 | 8.0 | 0.00 | 0.00 | 0.00 | 88 | 1015.6 |
| 20260905142533 | 26 | 281 | 4.8 | 8.0 | 0.00 | 0.00 | 0.00 | 89 | 1015.6 |
| 20260905142032 | 26 | 281 | 4.8 | 6.4 | 0.00 | 0.00 | 0.00 | 88 | 1015.7 |
| 20260905141547 | 26 | 281 | 4.8 | 11.3 | 0.00 | 0.00 | 0.00 | 89 | 1015.7 |
| 20260905141040 | 26 | 285 | 4.8 | 11.3 | 0.00 | 0.00 | 0.00 | 89 | 1015.6 |
| 20260905140035 | 26 | 289 | 6.4 | 12.9 | 0.00 | 0.00 | 0.00 | 89 | 1015.6 |
| 20260905135544 | 26 | 307 | 4.8 | 9.7 | 0.00 | 0.00 | 0.00 | 89 | 1015.6 |
| 20260905135030 | 26 | 286 | 3.2 | 8.0 | 0.00 | 0.00 | 0.00 | 90 | 1015.5 |
| 20260905134532 | 26 | 286 | 3.2 | 11.3 | 0.00 | 0.00 | 0.00 | 90 | 1015.6 |
| 20260905134033 | 26 | 286 | 3.2 | 11.3 | 0.00 | 0.00 | 0.00 | 91 | 1015.5 |
| 20260905133528 | 25 | 287 | 3.2 | 8.0 | 0.00 | 0.00 | 0.00 | 91 | 1015.5 |
| 20260905133049 | 25 | 289 | 4.8 | 8.0 | 0.00 | 0.00 | 0.00 | 91 | 1015.7 |
| 20260905132532 | 25 | 291 | 4.8 | 11.3 | 0.00 | 0.00 | 0.00 | 92 | 1015.7 |
| 20260905132044 | 25 | 297 | 6.4 | 11.3 | 0.00 | 0.00 | 0.00 | 92 | 1015.7 |
| 20260905131025 | 25 | 279 | 3.2 | 8.0 | 0.00 | 0.00 | 0.00 | 92 | 1015.7 |
| 20260905130526 | 25 | 280 | 4.8 | 9.7 | 0.00 | 0.00 | 0.00 | 93 | 1015.6 |
| 20260905130030 | 25 | 274 | 4.8 | 9.7 | 0.00 | 0.00 | 0.00 | 93 | 1015.6 |
| 20260905125516 | 25 | 266 | 4.8 | 9.7 | 0.00 | 0.00 | 0.00 | 93 | 1015.5 |
| 20260905125013 | 25 | 280 | 4.8 | 8.0 | 0.00 | 0.00 | 0.00 | 94 | 1015.3 |
| 20260905124514 | 25 | 289 | 3.2 | 6.4 | 0.00 | 0.00 | 0.00 | 94 | 1015.4 |
| 20260905124014 | 25 | 289 | 3.2 | 6.4 | 0.00 | 0.00 | 0.00 | 95 | 1015.4 |
| 20260905123512 | 25 | 290 | 3.2 | 6.4 | 0.00 | 0.00 | 0.00 | 95 | 1015.3 |
| 20260905123012 | 25 | 290 | 4.8 | 8.0 | 0.00 | 0.00 | 0.00 | 95 | 1015.3 |
| 20260905122512 | 25 | 290 | 4.8 | 8.0 | 0.00 | 0.00 | 0.00 | 95 | 1015.3 |
| 20260905122021 | 25 | 291 | 4.8 | 9.7 | 0.00 | 0.00 | 0.00 | 95 | 1015.3 |
| 20260905121516 | 25 | 295 | 6.4 | 11.3 | 0.00 | 0.00 | 0.00 | 95 | 1015.3 |
| 20260905120513 | 25 | 263 | 3.2 | 9.7 | 0.00 | 0.00 | 0.00 | 95 | 1015.1 |
| 20260905120013 | 25 | 238 | 1.6 | 4.8 | 0.00 | 0.00 | 0.00 | 95 | 1015.0 |